Location: Doux
(49.5045°N, 4.4321°E)
Time: 14:57:23
(UTC+00:00)

Cosmos 2278 - Pass Details

Date: 23 May 2024
Orbit: 837 x 853 km, 71.1° (Epoch: 18 June)

Event Time Altitude Azimuth Distance (km) Brightness Sun altitude
Rises 00:32:43 0° 332° (NNW) 3,431 7.6 -18.8°
Reaches altitude 10° 00:35:14 10° 337° (NNW) 2,493 6.9 -18.8°
Maximum altitude 00:40:53 59° 57° (ENE) 981 4.2 -18.5°
Drops below altitude 10° 00:46:31 10° 137° (SE) 2,479 5.8 -18.3°
Enters shadow 00:46:58 - 138° (SE) 2,643 6.0 -18.2°
